Regional Weather Roundup
Issued by NWS Upton, NY

Current Version | Previous Version | Text Only | Print | Product List | Glossary On
Versions: 1 2 3 4 5 6 7 8 9 10 11 12 13 14 15 16 17 18 19 20 21 22 23 24 25 26 27 28 29 30 31 32 33 34 35 36 37 38 39 40 41 42 43 44 45 46 47 48 49
000 ASUS41 KOKX 130404 RWROKX REGIONAL WEATHER ROUNDUP NATIONAL WEATHER SERVICE NEW YORK NY 1100 PM EST FRI FEB 12 2016 NOTE: "FAIR" INDICATES FEW OR NO CLOUDS BELOW 12,000 FEET WITH NO SIGNIFICANT WEATHER AND/OR OBSTRUCTIONS TO VISIBILITY. NYZ071-072-176-178-NJZ106-104-130500- NEW YORK CITY METRO AREA CITY SKY/WX TMP DP RH WIND PRES REMARKS CENTRAL PARK CLOUDY 22 5 48 VRB7 29.95F WCI 13 LAGUARDIA APRT CLOUDY 24 6 46 W13 29.94F WCI 12 KENNEDY INTL CLOUDY 24 8 50 W14 29.96F WCI 12 NEWARK/LIBERTY CLOUDY 22 9 57 W12 29.96F WCI 10 BRNX BOT. GARD N/A 23 7 50 W16 29.95S WCI 10 TETERBORO CLOUDY 22 5 48 W9 29.95S WCI 12 $$ NYZ177-179-078>081-130500- LONG ISLAND NEW YORK CITY SKY/WX TMP DP RH WIND PRES REMARKS FARMINGDALE CLOUDY 23 10 57 W7 29.94F WCI 15 ISLIP CLOUDY 22 12 65 W7 29.92F WCI 13 SHIRLEY FLURRIES 22 14 71 W7 29.94F WCI 13 RIVERHEAD N/A 23 12 63 W2 29.90F WESTHAMPTON FLURRIES 19 13 77 CALM 29.94F EAST HAMPTON LGT SNOW 21 15 76 CALM 29.92F MONTAUK POINT N/A 25 14 63 W6 29.92F WCI 18 $$ NYZ052-065-067-130500- HUDSON VALLEY CITY SKY/WX TMP DP RH WIND PRES REMARKS WHITE PLAINS CLOUDY 20 4 50 W8 29.90S WCI 10 NEWBURGH CLOUDY 19 9 63 W12 29.91S WCI 7 MONTGOMERY CLOUDY 20 8 60 SW10 29.90S WCI 9 POUGHKEEPSIE CLOUDY 22 5 48 SW9 29.91F WCI 12 ALBANY FLURRIES 20 3 48 SW7 29.88F WCI 11 $$ NJZ001-105-106-008-010-013-015-019>022-104-130500- NEW JERSEY CITY SKY/WX TMP DP RH WIND PRES REMARKS NEWARK/LIBERTY CLOUDY 22 9 57 W12 29.96F WCI 10 TETERBORO CLOUDY 22 5 48 W9 29.95S WCI 12 CALDWELL CLOUDY 21 5 50 W5 29.95F WCI 15 MORRISTOWN CLOUDY 21 7 53 W8 29.95F WCI 12 SOMERVILLE CLOUDY 21 9 59 CALM 29.94F SUSSEX LGT SNOW 19 9 65 SW6 29.90F WCI 11 ANDOVER N/A 18 10 71 SW7 29.91F WCI 9 TRENTON CLOUDY 21 14 74 W6 29.95F WCI 13 MILLVILLE CLOUDY 20 17 88 CALM 29.98F ATLANTIC CITY CLOUDY 21 18 88 W3 29.98F WRIGHTSTOWN CLOUDY 20 20 99 W5 29.94F WCI 14 TOMS RIVER CLOUDY 19 16 86 W3 29.98S BELMAR CLOUDY 19 9 63 W8 29.95F WCI 9 $$ PAZ047>061-062-071-130500- EASTERN PENNSYLVANIA CITY SKY/WX TMP DP RH WIND PRES REMARKS PHILADELPHIA FLURRIES 23 16 74 W7 29.99F WCI 15 ALLENTOWN LGT SNOW 20 13 74 SW9 29.94F WCI 9 SCRANTON FLURRIES 17 11 77 SW10G16 29.86F WCI 5 $$ CTZ002-004>006-009-010-012-RIZ004-006-007-MAZ004-011-015-130500- SOUTHERN NEW ENGLAND IN CT CITY SKY/WX TMP DP RH WIND PRES REMARKS BRADLEY INTL CLOUDY 20 8 60 SW6 29.89F WCI 12 HARTFORD CLOUDY 22 10 60 S6 29.92F WCI 14 DANBURY CLOUDY 19 4 51 W6 29.90F WCI 11 WTRBRY/OXFORD PTCLDY 18 5 57 CALM 29.87F BRIDGEPORT CLOUDY 23 9 55 W6 29.93F WCI 16 MERIDEN CLOUDY 18 10 71 SE3 29.91F NEW HAVEN CLOUDY 22 10 60 NW5 29.92F WCI 16 CHESTER CLOUDY 21 18 86 CALM 29.90F GROTON LGT SNOW 21 18 88 N5 29.92F FOG WCI 15 WILLIMANTIC CLOUDY 20 10 65 S3 29.91F IN RI CITY SKY/WX TMP DP RH WIND PRES REMARKS PROVIDENCE CLOUDY 21 9 59 W5 29.93F WCI 15 BLOCK ISLAND CLOUDY 23 18 80 NW8 29.89F WCI 14 WESTERLY CLOUDY 22 10 60 N5 29.92F WCI 16 IN MA CITY SKY/WX TMP DP RH WIND PRES REMARKS BOSTON CLOUDY 22 8 55 SW12G18 29.93F WCI 10 WORCESTER PTCLDY 14 6 70 SW6 29.83F WCI 5 WESTFIELD CLEAR 12 3 67 CALM 29.89F PROVINCETOWN MIX PCPN 23 14 68 W6 29.93F WCI 16 NANTUCKET LGT SNOW 24 20 84 CALM 29.92F VSB 3/4 $$ ANZ330-335-338-340-345-350-353-355-130500- COASTAL MARINE OBSERVATIONS STATION/POSITION TIME SKY/WX TEMP WIND PRES VSBY WAVE AIR SEA DIR/SP/G HT/PER (UTC) (F) (DEG/KT/KT) (MB) (MI) (FT/S) NY HARB ENTRANCE 0250 24 42 270/ 16/ 19 1014.3 2/ 3 4S FIRE IS NOT AVBL 20S FIRE ISLAND 0250 25 40 290/ 17/ 23 1014.0 2/ 4 GREAT SOUTH BAY NOT AVBL 23SW MTP 0350 26 45 270/ 12/ 16 1012.5 2/ 4 HUDSON CANYON 0250 27 48 1013.7 3/ 9 KINGS POINT 0300 23 36 1013.7 EXECUTION ROCKS NOT AVBL CENTRAL LI SOUND 0315 24 300/ 10/ 14 N/A 1/ 3 EASTERN LI SOUND 0300 25 40 310/ 8/ 14 N/A ROBBINS REEF 0300 22 1013.9 $$ >>>>>>>>>>>>>>>>>>>>>>>>>>>> KEY <<<<<<<<<<<<<<<<<<<<<<<<<<< > < > SKY/WX - SKY CONDITION/PRESENT WEATHER < > TMP - TEMPERATURE IN FAHRENHEIT < > DP - DEWPOINT IN FAHRENHEIT < > RH - RELATIVE HUMIDITY IN PERCENT < > WIND - DIRECTION AND SPEED IN MPH < > PRES - MEAN SEA LEVEL PRESSURE IN INCHES OF HG < > WCI - WIND CHILL INDEX < > VSB - VISIBILITY IN MILES < > HX - HEAT INDEX < > TC - TEMPERATURE IN CELSIUS < > VRB - VARIABLE WIND DIRECTION < > < >>>>>>>>>>>>>>>>>>>>>>>>>>>> KEY <<<<<<<<<<<<<<<<<<<<<<<<<<<

USA.gov is the U.S. government's official web portal to all federal, state and local government web resources and services.